AMAZONAS 2

Last updated on Sun Apr 12 2026 00:02:51 GMT+0000 (Coordinated Universal Time)

1 35942U 09054A 26101.43730830 -.00000280 00000+0 00000+0 0 9998 2 35942 1.6405 83.8796 0003485 296.6184 275.7970 1.00274278 60518
UTC large
Height (km)
Speed (km/s)
/
Latitude / Longitude
Inclination (degrees)
Orbital Period (minutes)
Azimuth
Elevation
Range (km)
Doppler Factor

Next 0 passes for location: London (51.5072 / 0.1276)

Sorry there are no passes over London.
AMAZONAS 2